Voltar ao catálogo

KORSAT-2

AtivoCiênciaVLEO
NORAD 62377·PAYLOAD·🇰🇷 South Korea

Lançado Dec 21, 2024 de Vandenberg Space Force Base

Loading…

Próximas Passagens (próximas 24 horas)

TLE

AtualizadoSource: Space-Track

Época: Sep 14, 2026, 05:53 UTC

1 62377U 24247A   26257.24558645  .00002252  00000-0  20283-3 0  9994
2 62377  45.4116 326.1219 0002236 307.6880  52.3795 14.98769345 94928

Acompanhe KORSAT-2 em tempo real com AllMySat

Download on the App Store